Weather History for Lemoore NAS, CA

Change the Weather History Date:

Tuesday, June 18, 2013

  Actual Average Record
Temperature  
Mean Temperature 71 °F -  
Max Temperature 87 °F 91 °F 102 °F (2012)
Min Temperature 55 °F 60 °F 52 °F (2014)
Cooling Degree Days 6    
Growing Degree Days 21 (Base 50)    
Moisture  
Dew Point 47 °F    
Average Humidity 42    
Maximum Humidity 72    
Minimum Humidity 23    
Precipitation  
Precipitation 0.00 in - - ()
Sea Level Pressure  
Sea Level Pressure 29.93 in    
Wind  
Wind Speed 14 mph (NNW)    
Max Wind Speed 28 mph    
Max Gust Speed 33 mph    
Visibility 10 miles    
Events      
Averages and records for this station are not official NWS values.
T = Trace of Precipitation, MM = Missing Value Source: NWS Daily Summary

Daily Weather History Graph

Daily Weather History Graph

Search for Another Location

Airport:

Trip Planner

Search our weather history database for the weather conditions in past years. The results will help you decide how hot, cold, wet, or windy it might be!

Date:

Astronomy

Jun. 18, 2013 Rise Set
Actual Time 5:41 AM PDT 8:20 PM PDT
Civil Twilight 5:11 AM PDT 8:50 PM PDT
Nautical Twilight 4:33 AM PDT 9:28 PM PDT
Astronomical Twilight 3:51 AM PDT 10:10 PM PDT
Moon 3:16 PM PDT (6/18) 1:45 AM PDT (6/18)
Length of Visible Light 15h 39m
Length of Day
14h 38m
Waxing Gibbous, 72% of the Moon is Illuminated
Jun 18
Waxing Gibbous
Jun 23
Full
Jun 29
Last Quarter
Jul 8
New
Jul 15
First Quarter

Hourly Weather History & Observations

Time (PDT) Temp. Dew Point Humidity Pressure Visibility Wind Dir Wind Speed Gust Speed Precip Events Conditions
12:56 AM 68.0 °F 48.9 °F 50% 29.96 in 10.0 mi NW 17.3 mph - N/A   Clear
1:56 AM 66.0 °F 48.0 °F 52% 29.95 in 10.0 mi NW 15.0 mph - N/A   Clear
2:56 AM 64.9 °F 48.0 °F 54% 29.95 in 10.0 mi NNW 13.8 mph - N/A   Clear
3:56 AM 63.0 °F 48.0 °F 58% 29.95 in 10.0 mi NNW 12.7 mph - N/A   Clear
4:56 AM 57.9 °F 46.9 °F 67% 29.95 in 10.0 mi NW 5.8 mph - N/A   Clear
5:56 AM 55.0 °F 46.0 °F 72% 29.96 in 10.0 mi West 5.8 mph - N/A   Clear
6:56 AM 61.0 °F 48.9 °F 64% 29.97 in 10.0 mi WNW 6.9 mph - N/A   Clear
7:11 AM 62.6 °F 48.2 °F 59% 29.98 in 10.0 mi WNW 8.1 mph - N/A   Clear
7:56 AM 66.0 °F 50.0 °F 56% 29.99 in 10.0 mi NNW 11.5 mph - N/A   Clear
8:56 AM 71.1 °F 50.0 °F 47% 29.99 in 10.0 mi NNW 11.5 mph - N/A   Clear
9:56 AM 73.9 °F 50.0 °F 43% 29.99 in 10.0 mi North 10.4 mph - N/A   Clear
10:56 AM 75.9 °F 50.0 °F 40% 29.98 in 10.0 mi NNW 10.4 mph 18.4 mph N/A   Clear
11:56 AM 78.1 °F 48.9 °F 36% 29.97 in 10.0 mi NNW 6.9 mph - N/A   Clear
12:56 PM 82.9 °F 48.0 °F 29% 29.95 in 10.0 mi NNW 10.4 mph 20.7 mph N/A   Clear
1:56 PM 84.9 °F 46.9 °F 27% 29.92 in 10.0 mi North 9.2 mph 17.3 mph N/A   Partly Cloudy
2:56 PM 87.1 °F 46.9 °F 25% 29.91 in 10.0 mi NNW 13.8 mph 20.7 mph N/A   Scattered Clouds
3:56 PM 86.0 °F 45.0 °F 24% 29.89 in 10.0 mi NNW 13.8 mph 19.6 mph N/A   Scattered Clouds
4:56 PM 87.1 °F 45.0 °F 23% 29.87 in 10.0 mi NNW 16.1 mph 25.3 mph N/A   Scattered Clouds
5:56 PM 86.0 °F 45.0 °F 24% 29.86 in 10.0 mi NNW 19.6 mph 23.0 mph N/A   Scattered Clouds
6:56 PM 84.0 °F 45.0 °F 25% 29.85 in 10.0 mi NNW 18.4 mph - N/A   Partly Cloudy
7:56 PM 78.1 °F 43.0 °F 29% 29.87 in 6.0 mi NNW 27.6 mph 33.4 mph N/A   Widespread Dust
8:56 PM 73.9 °F 42.1 °F 32% 29.88 in 10.0 mi NNW 21.9 mph 28.8 mph N/A   Partly Cloudy
9:56 PM 71.1 °F 42.1 °F 35% 29.91 in 10.0 mi NNW 24.2 mph 29.9 mph N/A   Clear
10:56 PM 66.9 °F 42.1 °F 40% 29.93 in 10.0 mi NNW 19.6 mph - N/A   Clear
11:56 PM 63.0 °F 43.0 °F 48% 29.94 in 10.0 mi NNW 16.1 mph - N/A   Clear